Weather History for Harrison, AR

Change the Weather History Date:

Sunday, May 19, 2013

  Actual Average Record
Temperature  
Mean Temperature 25 °C 19 °C  
Max Temperature 30 °C 25 °C 33 °C (1937)
Min Temperature 20 °C 13 °C 3 °C (2002)
Degree Days  
Heating Degree Days 0 2  
Month to date heating degree days 118 60  
Since 1 July heating degree days 3954 3981  
Cooling Degree Days 12 4  
Month to date cooling degree days 54 49  
Year to date cooling degree days 86 86  
Growing Degree Days 26 (Base 50)    
Moisture  
Dew Point 19 °C    
Average Humidity 72    
Maximum Humidity 97    
Minimum Humidity 47    
Precipitation  
Precipitation 0.00 mm 3.56 mm 6.43 mm (1960)
Month to date precipitation 2.99 3.04  
Year to date precipitation 16.33 16.35  
Snow  
Snow 0.00 cm 0.00 cm - ()
Month to date snowfall 0.1 0.0  
Since 1 July snowfall 4.7 11.5  
Snow Depth 0.00 cm    
Sea Level Pressure  
Sea Level Pressure 1009 hPa    
Wind  
Wind Speed 20 km/h (SSE)    
Max Wind Speed 47 km/h    
Max Gust Speed 69 km/h    
Visibility 13 kilometers    
Events      
T = Trace of Precipitation, MM = Missing Value Source: NWS Daily Summary

Daily Weather History Graph

Daily Weather History Graph

Search for Another Location

Airport:

Trip Planner

Search our weather history database for the weather conditions in past years. The results will help you decide how hot, cold, wet, or windy it might be!

Date:

Astronomy

May. 19, 2013 Rise Set
Actual Time 6:03 AM CDT 8:15 PM CDT
Civil Twilight 5:34 AM CDT 8:44 PM CDT
Nautical Twilight 4:58 AM CDT 9:20 PM CDT
Astronomical Twilight 4:20 AM CDT 9:58 PM CDT
Moon 2:30 PM CDT (5/19) 2:16 AM CDT (5/19)
Length of Visible Light 15h 10m
Length of Day
14h 12m
Waxing Gibbous, 65% of the Moon is Illuminated
May 19
Waxing Gibbous
May 24
Full
May 31
Last Quarter
Jun 8
New
Jun 16
First Quarter

Hourly Weather History & Observations

Time (CDT) Temp. Heat Index Dew Point Humidity Pressure Visibility Wind Dir Wind Speed Gust Speed Precip Events Conditions
12:39 AM 21.0 °C - 20.0 °C 94% 1012.1 hPa 4.0 km Calm Calm - N/A   Clear
12:50 AM 21.0 °C - 20.0 °C 94% 1011.7 hPa 4.8 km Calm Calm - N/A   Clear
12:53 AM 21.1 °C - 20.0 °C 93% 1010.3 hPa 4.8 km Calm Calm - N/A   Clear
1:53 AM 22.2 °C - 20.0 °C 87% 1009.8 hPa 12.9 km SSE 11.1 km/h / 3.1 m/s - N/A   Clear
2:53 AM 21.7 °C - 20.0 °C 90% 1010.4 hPa 11.3 km NW 7.4 km/h / 2.1 m/s - N/A   Partly Cloudy
3:53 AM 21.1 °C - 19.4 °C 90% 1009.5 hPa 11.3 km Variable 5.6 km/h / 1.5 m/s - N/A   Clear
4:53 AM 21.1 °C - 20.0 °C 93% 1009.5 hPa 11.3 km SSE 11.1 km/h / 3.1 m/s - N/A   Clear
5:53 AM 21.7 °C - 19.4 °C 87% 1009.5 hPa 11.3 km SSE 9.3 km/h / 2.6 m/s - N/A   Clear
6:53 AM 22.0 °C - 20.0 °C 88% 1011.4 hPa 9.7 km SSE 13.0 km/h / 3.6 m/s - N/A   Clear
7:53 AM 22.8 °C - 20.6 °C 87% 1010.2 hPa 11.3 km SSE 13.0 km/h / 3.6 m/s - N/A   Clear
8:53 AM 23.3 °C - 20.0 °C 82% 1010.6 hPa 14.5 km SSE 7.4 km/h / 2.1 m/s - N/A   Clear
9:53 AM 25.0 °C - 18.9 °C 69% 1010.4 hPa 16.1 km SE 9.3 km/h / 2.6 m/s - N/A   Clear
10:53 AM 27.2 °C 27.9 °C 17.2 °C 54% 1009.8 hPa 16.1 km SSE 22.2 km/h / 6.2 m/s - N/A   Clear
11:53 AM 28.9 °C 29.4 °C 17.2 °C 49% 1009.4 hPa 16.1 km SE 16.7 km/h / 4.6 m/s - N/A   Clear
12:53 PM 28.3 °C 28.4 °C 15.6 °C 46% 1008.9 hPa 16.1 km South 16.7 km/h / 4.6 m/s - N/A   Clear
1:53 PM 29.0 °C 29.4 °C 17.0 °C 48% 1010.0 hPa 16.1 km SSE 22.2 km/h / 6.2 m/s - N/A   Clear
2:53 PM 29.0 °C 29.4 °C 17.0 °C 48% 1009.4 hPa 16.1 km South 31.5 km/h / 8.7 m/s 40.7 km/h / 11.3 m/s N/A   Clear
3:53 PM 29.4 °C 29.9 °C 17.2 °C 48% 1007.2 hPa 16.1 km SSE 31.5 km/h / 8.7 m/s 44.4 km/h / 12.3 m/s N/A   Clear
4:53 PM 29.4 °C 30.1 °C 17.8 °C 49% 1006.4 hPa 16.1 km SSE 33.3 km/h / 9.3 m/s 42.6 km/h / 11.8 m/s N/A   Clear
5:53 PM 28.3 °C 29.4 °C 18.9 °C 56% 1005.5 hPa 16.1 km SSE 33.3 km/h / 9.3 m/s 42.6 km/h / 11.8 m/s N/A   Clear
6:53 PM 27.2 °C 28.3 °C 18.9 °C 60% 1006.0 hPa 16.1 km SSE 24.1 km/h / 6.7 m/s 35.2 km/h / 9.8 m/s N/A   Clear
7:53 PM 25.6 °C - 17.8 °C 62% 1006.0 hPa 16.1 km SE 24.1 km/h / 6.7 m/s 35.2 km/h / 9.8 m/s N/A   Clear
8:53 PM 25.6 °C - 17.8 °C 62% 1006.2 hPa 16.1 km South 25.9 km/h / 7.2 m/s 38.9 km/h / 10.8 m/s N/A   Clear
9:53 PM 25.0 °C - 18.3 °C 66% 1007.5 hPa 16.1 km South 24.1 km/h / 6.7 m/s 40.7 km/h / 11.3 m/s N/A   Clear
10:53 PM 25.0 °C - 18.3 °C 66% 1007.5 hPa 16.1 km South 24.1 km/h / 6.7 m/s 35.2 km/h / 9.8 m/s N/A   Partly Cloudy
11:53 PM 24.4 °C - 18.9 °C 71% 1006.4 hPa 16.1 km South 33.3 km/h / 9.3 m/s 55.6 km/h / 15.4 m/s N/A   Clear